GW4728 Weather Reports


Display with metric or nautical units.
time (UTC)temp
F
wind
direction
speed
MPH
gust
MPH
rain 1hr
in
rain 24hr
in
rain mn
in
humidity
%
barometer
mb
20260503202009 63 207 7.0 14.0 0.00 0.00 0.00 41 1006.3
20260503201526 63 200 7.0 14.0 0.00 0.00 0.00 43 1006.5
20260503201009 62 186 6.0 17.0 0.00 0.00 0.00 44 1006.6
20260503200510 62 209 9.0 17.0 0.00 0.00 0.00 43 1006.7
20260503200023 62 196 12.0 17.0 0.00 0.00 0.00 42 1006.7
20260503195511 62 240 8.0 16.0 0.00 0.00 0.00 45 1006.8
20260503195009 62 200 10.0 16.0 0.00 0.00 0.00 42 1007.0
20260503194524 62 215 8.0 16.0 0.00 0.00 0.00 44 1007.0
20260503194009 61 220 9.0 15.0 0.00 0.00 0.00 45 1007.0
20260503193506 61 231 7.0 17.0 0.00 0.00 0.00 45 1007.2
20260503193022 61 232 8.0 17.0 0.00 0.00 0.00 44 1007.3
20260503192508 62 204 11.0 18.0 0.00 0.00 0.00 42 1007.2
20260503192013 62 207 8.0 19.0 0.00 0.00 0.00 40 1007.3
20260503191520 62 205 11.0 19.0 0.00 0.00 0.00 40 1007.3
20260503191009 62 187 9.0 19.0 0.00 0.00 0.00 43 1007.3
20260503190507 62 181 11.0 19.0 0.00 0.00 0.00 39 1007.2
20260503190038 62 246 11.0 20.0 0.00 0.00 0.00 41 1007.3
20260503185509 62 204 11.0 20.0 0.00 0.00 0.00 38 1007.3
20260503185008 63 201 10.0 20.0 0.00 0.00 0.00 39 1007.3
20260503184527 62 221 10.0 20.0 0.00 0.00 0.00 37 1007.4
20260503184006 62 205 11.0 19.0 0.00 0.00 0.00 36 1007.4
20260503183503 62 190 10.0 16.0 0.00 0.00 0.00 42 1007.3
20260503183011 62 207 8.0 14.0 0.00 0.00 0.00 42 1007.4
20260503182502 62 169 8.0 17.0 0.00 0.00 0.00 43 1007.6
20260503182002 61 210 7.0 17.0 0.00 0.00 0.00 44 1007.7
20260503181520 61 227 9.0 16.0 0.00 0.00 0.00 44 1007.8
20260503181004 61 217 8.0 16.0 0.00 0.00 0.00 43 1008.0
20260503180503 61 236 10.0 16.0 0.00 0.00 0.00 43 1008.1
20260503180013 60 218 9.0 17.0 0.00 0.00 0.00 44 1008.1
20260503175511 60 210 8.0 21.0 0.00 0.00 0.00 45 1008.2
20260503175002 60 204 7.0 21.0 0.00 0.00 0.00 47 1008.3
20260503174504 59 220 13.0 19.0 0.00 0.00 0.00 44 1008.4
20260503174005 59 172 8.0 13.0 0.00 0.00 0.00 47 1008.4
20260503173505 59 258 7.0 17.0 0.00 0.00 0.00 48 1008.6
20260503173004 58 206 11.0 17.0 0.00 0.00 0.00 48 1008.7
20260503172505 58 211 8.0 18.0 0.00 0.00 0.00 48 1008.9
20260503172006 58 215 9.0 18.0 0.00 0.00 0.00 49 1008.9
20260503171521 58 194 8.0 15.0 0.00 0.00 0.00 51 1009.2
20260503171003 58 202 7.0 15.0 0.00 0.00 0.00 51 1009.2
20260503170504 57 221 8.0 15.0 0.00 0.00 0.00 50 1009.3
20260503151005 53 224 9.0 16.0 0.00 0.00 0.00 60 1010.9
20260503150505 54 186 10.0 17.0 0.00 0.00 0.00 57 1010.9
20260503131007 51 219 7.0 12.0 0.00 0.00 0.00 54 1011.6
20260503130507 51 216 8.0 12.0 0.00 0.00 0.00 53 1011.6
20260503110509 48 214 5.0 9.0 0.00 0.00 0.00 52 1011.6
20260503090507 46 206 5.0 8.0 0.00 0.00 0.00 55 1012.4
20260503081515 46 209 3.0 5.0 0.00 0.00 0.00 56 1012.8
20260503081011 46 201 3.0 7.0 0.00 0.00 0.00 55 1012.8
20260503080508 46 206 4.0 7.0 0.00 0.00 0.00 54 1012.8
20260503072507 47 203 2.0 6.0 0.00 0.00 0.00 53 1013.1
20260503072009 47 207 2.0 6.0 0.00 0.00 0.00 53 1013.1
20260503071528 47 186 2.0 5.0 0.00 0.00 0.00 53 1013.1
20260503071009 47 210 2.0 5.0 0.00 0.00 0.00 54 1013.1
20260503070507 47 204 2.0 7.0 0.00 0.00 0.00 54 1013.1
20260503055006 47 207 3.0 6.0 0.00 0.00 0.00 52 1013.8
20260503054512 47 209 3.0 6.0 0.00 0.00 0.00 52 1013.8
20260503054006 47 208 3.0 8.0 0.00 0.00 0.00 51 1013.8
20260503053508 47 211 4.0 8.0 0.00 0.00 0.00 52 1013.9
20260503053013 48 205 4.0 6.0 0.00 0.00 0.00 50 1013.9
20260503052503 48 205 3.0 6.0 0.00 0.00 0.00 51 1013.9
20260503052010 48 205 4.0 6.0 0.00 0.00 0.00 49 1013.9
20260503051523 48 204 4.0 7.0 0.00 0.00 0.00 49 1014.0
20260503051003 48 202 4.0 7.0 0.00 0.00 0.00 50 1014.1
20260503050503 48 201 3.0 6.0 0.00 0.00 0.00 50 1014.0
20260503050018 48 208 3.0 6.0 0.00 0.00 0.00 50 1014.0
20260503045504 48 205 3.0 7.0 0.00 0.00 0.00 49 1014.0
20260503045006 48 207 3.0 7.0 0.00 0.00 0.00 49 1014.0
20260503044512 48 203 3.0 7.0 0.00 0.00 0.00 50 1014.0
20260503044006 48 201 4.0 6.0 0.00 0.00 0.00 50 1014.0
20260503043501 48 202 3.0 7.0 0.00 0.00 0.00 49 1014.1
20260503043010 48 205 4.0 7.0 0.00 0.00 0.00 50 1014.1
20260503042506 48 208 4.0 7.0 0.00 0.00 0.00 51 1014.1
20260503042010 48 204 4.0 9.0 0.00 0.00 0.00 50 1014.2
20260503041508 48 207 4.0 9.0 0.00 0.00 0.00 50 1014.2
20260503041005 48 209 4.0 7.0 0.00 0.00 0.00 49 1014.3
20260503040519 48 205 4.0 8.0 0.00 0.00 0.00 50 1014.3
20260503040013 48 213 4.0 8.0 0.00 0.00 0.00 51 1014.3
20260503035506 49 211 4.0 6.0 0.00 0.00 0.00 50 1014.4
20260503035007 49 205 3.0 6.0 0.00 0.00 0.00 50 1014.4
20260503034524 49 210 3.0 6.0 0.00 0.00 0.00 49 1014.4
20260503034003 49 205 3.0 6.0 0.00 0.00 0.00 49 1014.5
20260503033503 49 205 3.0 6.0 0.00 0.00 0.00 51 1014.5
20260503033022 49 198 3.0 5.0 0.00 0.00 0.00 49 1014.5
20260503032503 49 205 3.0 5.0 0.00 0.00 0.00 49 1014.5
20260503032007 49 208 2.0 4.0 0.00 0.00 0.00 49 1014.6
20260503031516 49 212 2.0 4.0 0.00 0.00 0.00 48 1014.7
20260503031010 49 198 2.0 4.0 0.00 0.00 0.00 48 1014.7
20260503030503 49 201 2.0 4.0 0.00 0.00 0.00 48 1014.7
20260503030014 49 203 2.0 5.0 0.00 0.00 0.00 48 1014.8
20260503025508 49 204 2.0 5.0 0.00 0.00 0.00 47 1014.9
20260503025002 49 193 2.0 5.0 0.00 0.00 0.00 47 1014.9
20260503024511 49 191 2.0 4.0 0.00 0.00 0.00 47 1014.8
20260503024008 50 192 2.0 4.0 0.00 0.00 0.00 46 1014.8
20260503023509 50 189 2.0 4.0 0.00 0.00 0.00 46 1014.9
20260503023008 50 188 1.0 3.0 0.00 0.00 0.00 45 1014.8
20260503022506 50 179 1.0 4.0 0.00 0.00 0.00 46 1014.8
20260503022007 50 167 2.0 4.0 0.00 0.00 0.00 45 1014.8
20260503021524 51 176 2.0 3.0 0.00 0.00 0.00 44 1014.8
20260503021005 51 175 2.0 3.0 0.00 0.00 0.00 43 1014.8
20260503020507 51 180 2.0 3.0 0.00 0.00 0.00 42 1014.7
20260503020020 51 197 0.0 2.0 0.00 0.00 0.00 42 1014.7
20260503015502 52 232 0.0 3.0 0.00 0.00 0.00 42 1014.7
20260503015009 52 232 1.0 4.0 0.00 0.00 0.00 44 1014.6
20260503014522 52 234 2.0 4.0 0.00 0.00 0.00 41 1014.6
20260503014008 52 214 2.0 4.0 0.00 0.00 0.00 40 1014.5
20260503013508 52 210 2.0 3.0 0.00 0.00 0.00 41 1014.5
20260503013016 53 198 1.0 3.0 0.00 0.00 0.00 41 1014.5
20260503012509 53 198 2.0 3.0 0.00 0.00 0.00 40 1014.5
20260503012004 53 198 2.0 4.0 0.00 0.00 0.00 39 1014.5
20260503011526 53 214 2.0 4.0 0.00 0.00 0.00 37 1014.5
20260503011006 53 209 1.0 4.0 0.00 0.00 0.00 36 1014.5
20260503010509 53 214 2.0 5.0 0.00 0.00 0.00 36 1014.5
20260503010011 54 211 2.0 5.0 0.00 0.00 0.00 35 1014.5
20260503005506 54 214 3.0 5.0 0.00 0.00 0.00 35 1014.5
20260503005014 54 220 2.0 5.0 0.00 0.00 0.00 37 1014.6
20260503004525 54 206 2.0 5.0 0.00 0.00 0.00 37 1014.5
20260503004006 54 210 2.0 5.0 0.00 0.00 0.00 34 1014.5
20260503003509 55 250 3.0 7.0 0.00 0.00 0.00 34 1014.5
20260503003024 55 207 3.0 8.0 0.00 0.00 0.00 35 1014.5
20260503002505 55 204 4.0 8.0 0.00 0.00 0.00 33 1014.6
20260503002007 55 202 3.0 6.0 0.00 0.00 0.00 32 1014.6
20260503001524 55 211 2.0 6.0 0.00 0.00 0.00 34 1014.7
20260503001011 55 204 3.0 6.0 0.00 0.00 0.00 35 1014.7
20260503000506 56 255 3.0 7.0 0.00 0.00 0.00 32 1014.7
20260503000021 56 233 3.0 7.0 0.00 0.00 0.00 32 1014.7
20260502235509 56 248 3.0 9.0 0.00 0.00 0.00 30 1014.8
20260502235006 56 227 4.0 9.0 0.00 0.00 0.00 28 1014.8
20260502234530 56 248 3.0 6.0 0.00 0.00 0.00 30 1014.8
20260502234006 56 249 4.0 7.0 0.00 0.00 0.00 30 1014.9
20260502233510 56 233 4.0 8.0 0.00 0.00 0.00 32 1015.0
20260502233015 56 248 3.0 8.0 0.00 0.00 0.00 35 1015.0
20260502232510 56 238 4.0 7.0 0.00 0.00 0.00 31 1015.0
20260502232007 56 214 4.0 8.0 0.00 0.00 0.00 32 1015.1
20260502231510 56 224 4.0 8.0 0.00 0.00 0.00 35 1015.2
20260502231009 56 243 4.0 10.0 0.00 0.00 0.00 31 1015.2
20260502230510 56 248 5.0 12.0 0.00 0.00 0.00 29 1015.2
20260502230028 56 221 4.0 12.0 0.00 0.00 0.00 30 1015.2
20260502225508 57 221 2.0 10.0 0.00 0.00 0.00 29 1015.2
20260502225007 57 214 6.0 10.0 0.00 0.00 0.00 29 1015.3
20260502224527 56 221 3.0 7.0 0.00 0.00 0.00 32 1015.4
20260502224015 56 236 4.0 8.0 0.00 0.00 0.00 31 1015.4
20260502223506 56 240 4.0 8.0 0.00 0.00 0.00 34 1015.5
20260502223022 56 199 3.0 8.0 0.00 0.00 0.00 29 1015.6
20260502222510 56 251 3.0 11.0 0.00 0.00 0.00 31 1015.6
20260502222005 56 206 6.0 11.0 0.00 0.00 0.00 33 1015.6
20260502221522 56 261 4.0 9.0 0.00 0.00 0.00 35 1015.7
20260502221011 56 209 5.0 9.0 0.00 0.00 0.00 35 1015.7
20260502220511 56 237 4.0 7.0 0.00 0.00 0.00 34 1015.7
20260502220025 56 236 3.0 9.0 0.00 0.00 0.00 32 1015.7
20260502215511 55 203 5.0 9.0 0.00 0.00 0.00 32 1015.8
20260502215009 55 240 3.0 10.0 0.00 0.00 0.00 36 1015.8
20260502214516 55 240 3.0 10.0 0.00 0.00 0.00 33 1015.9
20260502214009 55 239 4.0 8.0 0.00 0.00 0.00 34 1015.9
20260502213507 55 239 3.0 7.0 0.00 0.00 0.00 33 1016.0
20260502213031 55 226 4.0 7.0 0.00 0.00 0.00 32 1016.0
20260502212506 56 254 3.0 8.0 0.00 0.00 0.00 28 1016.0
20260502212008 56 226 5.0 8.0 0.00 0.00 0.00 33 1016.0
20260502211527 57 237 3.0 7.0 0.00 0.00 0.00 32 1016.1
20260502211005 58 266 3.0 6.0 0.00 0.00 0.00 31 1016.1
20260502210508 57 327 3.0 6.0 0.00 0.00 0.00 30 1016.1
20260502210025 56 236 2.0 6.0 0.00 0.00 0.00 29 1016.2
20260502205511 55 172 3.0 6.0 0.00 0.00 0.00 35 1016.3
20260502205008 55 237 2.0 6.0 0.00 0.00 0.00 31 1016.4
20260502204506 56 207 3.0 7.0 0.00 0.00 0.00 33 1016.4
20260502204005 56 276 4.0 8.0 0.00 0.00 0.00 29 1016.5
20260502203512 55 232 5.0 10.0 0.00 0.00 0.00 35 1016.7
20260502203003 55 292 4.0 10.0 0.00 0.00 0.00 30 1016.7
20260502202502 55 240 4.0 9.0 0.00 0.00 0.00 32 1016.8